DW8284 Weather Reports


Display with metric or nautical units.
time (UTC)temp
F
wind
direction
speed
MPH
gust
MPH
rain 1hr
in
rain 24hr
in
rain mn
in
humidity
%
barometer
mb
20260906031038 77 76 1.0 2.0 0.00 0.00 0.00 87 1015.5
20260906030539 77 41 1.0 2.0 0.00 0.00 0.00 87 1015.4
20260906030100 77 205 1.0 2.0 0.00 0.00 0.00 87 1015.5
20260906025538 77 93 1.0 2.0 0.00 0.00 0.00 86 1015.5
20260906025040 77 51 0.0 2.0 0.00 0.00 0.00 86 1015.4
20260906024601 77 44 0.0 2.0 0.00 0.00 0.00 86 1015.4
20260906024043 78 93 1.0 2.0 0.00 0.00 0.00 85 1015.4
20260906023541 78 111 0.0 2.0 0.00 0.00 0.00 85 1015.3
20260906023058 78 93 1.0 2.0 0.00 0.00 0.00 85 1015.2
20260906022540 78 0 0.0 2.0 0.00 0.00 0.00 85 1015.3
20260906022041 78 41 0.0 2.0 0.00 0.00 0.00 85 1015.3
20260906021606 79 0 0.0 0.0 0.00 0.00 0.00 85 1015.2
20260906021040 79 0 0.0 0.0 0.00 0.00 0.00 85 1015.2
20260906020540 79 0 0.0 0.0 0.00 0.00 0.00 85 1015.1
20260906020106 79 0 0.0 0.0 0.00 0.00 0.00 84 1015.0
20260906015539 79 0 0.0 4.0 0.00 0.00 0.00 84 1014.9
20260906015040 80 0 0.0 4.0 0.00 0.00 0.00 84 1015.0
20260906014600 80 0 0.0 2.0 0.00 0.00 0.00 84 1015.1
20260906014040 80 34 1.0 3.0 0.00 0.00 0.00 84 1015.0
20260906013540 80 0 0.0 3.0 0.00 0.00 0.00 83 1014.9
20260906013051 81 0 1.0 3.0 0.00 0.00 0.00 83 1014.8
20260906012538 81 51 1.0 3.0 0.00 0.00 0.00 83 1014.7
20260906012038 81 0 0.0 3.0 0.00 0.00 0.00 82 1014.6
20260906011602 81 24 1.0 3.0 0.00 0.00 0.00 82 1014.6
20260906011044 82 76 1.0 3.0 0.00 0.00 0.00 82 1014.4
20260906010541 82 51 1.0 3.0 0.00 0.00 0.00 81 1014.4
20260906010106 82 57 1.0 4.0 0.00 0.00 0.00 81 1014.3
20260906005538 82 76 1.0 4.0 0.00 0.00 0.00 81 1014.3
20260906005038 83 123 1.0 3.0 0.00 0.00 0.00 81 1014.1
20260906004557 83 76 1.0 3.0 0.00 0.00 0.00 81 1014.2
20260906004039 83 61 0.0 2.0 0.00 0.00 0.00 81 1014.1
20260906003540 84 80 1.0 3.0 0.00 0.00 0.00 80 1014.1
20260906003102 84 80 1.0 3.0 0.00 0.00 0.00 80 1013.9
20260906002537 84 68 1.0 3.0 0.00 0.00 0.00 79 1013.9
20260906002041 84 46 1.0 3.0 0.00 0.00 0.00 79 1013.9
20260906001610 85 34 1.0 3.0 0.00 0.00 0.00 78 1013.9
20260906001040 85 45 0.0 3.0 0.00 0.00 0.00 78 1013.9
20260906000541 85 44 0.0 3.0 0.00 0.00 0.00 78 1014.0
20260906000056 85 93 0.0 2.0 0.00 0.00 0.00 78 1014.0
20260905235538 85 111 0.0 3.0 0.00 0.00 0.00 77 1013.9
20260905235038 86 61 1.0 3.0 0.00 0.00 0.00 77 1013.8
20260905234553 86 64 0.0 4.0 0.00 0.00 0.00 77 1013.8
20260905234040 86 44 1.0 4.0 0.00 0.00 0.00 77 1013.8
20260905233539 86 93 1.0 4.0 0.00 0.00 0.00 76 1013.6
20260905233105 87 115 0.0 4.0 0.00 0.00 0.00 77 1013.6
20260905232541 87 59 1.0 4.0 0.00 0.00 0.00 76 1013.5
20260905232041 87 51 1.0 5.0 0.00 0.00 0.00 76 1013.4
20260905231557 87 137 1.0 5.0 0.00 0.00 0.00 77 1013.4
20260905231039 87 68 1.0 4.0 0.00 0.00 0.00 77 1013.4
20260905230538 88 51 0.0 2.0 0.00 0.00 0.00 77 1013.5
20260905230055 88 0 0.0 4.0 0.00 0.00 0.00 77 1013.6
20260905225538 88 178 1.0 4.0 0.00 0.00 0.00 77 1013.5
20260905225040 88 129 1.0 3.0 0.00 0.00 0.00 77 1013.4
20260905224606 88 51 0.0 3.0 0.00 0.00 0.00 77 1013.3
20260905224040 88 68 0.0 2.0 0.00 0.00 0.00 76 1013.4
20260905223540 88 0 0.0 4.0 0.00 0.00 0.00 76 1013.4
20260905223057 88 61 1.0 4.0 0.00 0.00 0.00 76 1013.5
20260905222540 88 153 1.0 3.0 0.00 0.00 0.00 75 1013.5
20260905222041 89 85 0.0 2.0 0.00 0.00 0.00 76 1013.5
20260905221554 89 0 0.0 2.0 0.00 0.00 0.00 76 1013.5
20260905221041 89 68 0.0 2.0 0.00 0.00 0.00 76 1013.5
20260905220544 89 137 0.0 2.0 0.00 0.00 0.00 76 1013.4
20260905215540 89 0 0.0 2.0 0.00 0.00 0.00 75 1013.3
20260905215042 89 51 0.0 2.0 0.00 0.00 0.00 75 1013.4
20260905214600 89 0 0.0 2.0 0.00 0.00 0.00 75 1013.4
20260905214041 89 0 0.0 2.0 0.00 0.00 0.00 74 1013.4
20260905213538 89 0 0.0 3.0 0.00 0.00 0.00 74 1013.4
20260905213106 89 0 0.0 3.0 0.00 0.00 0.00 74 1013.4
20260905212538 90 51 0.0 3.0 0.00 0.00 0.00 75 1013.4
20260905212040 90 0 0.0 3.0 0.00 0.00 0.00 74 1013.3
20260905211558 90 0 0.0 3.0 0.00 0.00 0.00 75 1013.3
20260905211041 90 59 1.0 3.0 0.00 0.00 0.00 75 1013.3
20260905210541 90 0 0.0 2.0 0.00 0.00 0.00 75 1013.3
20260905210108 90 0 0.0 2.0 0.00 0.00 0.00 75 1013.4
20260905205538 90 119 0.0 2.0 0.00 0.00 0.00 75 1013.3
20260905205037 90 51 0.0 2.0 0.00 0.00 0.00 75 1013.4
20260905204549 90 265 0.0 2.0 0.00 0.00 0.00 75 1013.4
20260905204044 90 0 0.0 2.0 0.00 0.00 0.00 75 1013.4
20260905203542 90 0 0.0 2.0 0.00 0.00 0.00 75 1013.6
20260905203058 90 0 0.0 2.0 0.00 0.00 0.00 75 1013.5
20260905202539 90 0 0.0 2.0 0.00 0.00 0.00 75 1013.6
20260905202040 90 68 0.0 2.0 0.00 0.00 0.00 75 1013.7
20260905201603 90 0 0.0 2.0 0.00 0.00 0.00 75 1013.6
20260905201040 90 51 0.0 2.0 0.00 0.00 0.00 75 1013.6
20260905200538 90 0 0.0 4.0 0.00 0.00 0.00 75 1013.6
20260905200120 90 0 0.0 4.0 0.00 0.00 0.00 75 1013.7
20260905195538 90 0 0.0 2.0 0.00 0.00 0.00 75 1013.7
20260905195038 90 0 0.0 2.0 0.00 0.00 0.00 75 1013.6
20260905194552 90 0 0.0 2.0 0.00 0.00 0.00 74 1013.6
20260905194038 90 247 0.0 2.0 0.00 0.00 0.00 76 1013.7
20260905193538 90 0 0.0 3.0 0.00 0.00 0.00 76 1013.6
20260905193100 90 265 0.0 3.0 0.00 0.00 0.00 75 1013.7
20260905192538 90 0 0.0 3.0 0.00 0.00 0.00 77 1013.7
20260905192042 90 38 0.0 2.0 0.00 0.00 0.00 76 1013.7
20260905191555 90 0 0.0 2.0 0.00 0.00 0.00 75 1013.8
20260905191038 90 51 0.0 2.0 0.00 0.00 0.00 75 1013.9
20260905190539 90 9 0.0 2.0 0.00 0.00 0.00 76 1013.9
20260905190058 90 0 0.0 2.0 0.00 0.00 0.00 77 1013.9
20260905185542 90 0 0.0 2.0 0.00 0.00 0.00 76 1014.0
20260905185042 90 0 0.0 2.0 0.00 0.00 0.00 75 1014.0
20260905184606 90 0 0.0 2.0 0.00 0.00 0.00 78 1014.0
20260905184038 90 0 0.0 2.0 0.00 0.00 0.00 76 1014.0
20260905183539 90 232 0.0 2.0 0.00 0.00 0.00 77 1014.1
20260905183059 90 119 0.0 2.0 0.00 0.00 0.00 78 1014.1
20260905182544 90 162 0.0 2.0 0.00 0.00 0.00 77 1014.2
20260905182038 89 26 0.0 3.0 0.00 0.00 0.00 76 1014.1
20260905181557 89 41 0.0 3.0 0.00 0.00 0.00 77 1014.1
20260905181039 89 247 0.0 3.0 0.00 0.00 0.00 77 1014.1
20260905180545 89 0 0.0 3.0 0.00 0.00 0.00 77 1014.1
20260905180112 89 0 0.0 3.0 0.00 0.00 0.00 77 1014.2
20260905175542 89 34 0.0 3.0 0.00 0.00 0.00 77 1014.2
20260905175043 89 178 0.0 2.0 0.00 0.00 0.00 78 1014.3
20260905174605 89 265 0.0 2.0 0.00 0.00 0.00 78 1014.3
20260905174041 89 0 0.0 2.0 0.00 0.00 0.00 79 1014.3
20260905173538 89 34 0.0 3.0 0.00 0.00 0.00 79 1014.3
20260905173056 88 26 0.0 3.0 0.00 0.00 0.00 79 1014.3
20260905172538 88 0 0.0 2.0 0.00 0.00 0.00 79 1014.3
20260905172038 88 0 0.0 2.0 0.00 0.00 0.00 80 1014.3
20260905171606 88 68 0.0 2.0 0.00 0.00 0.00 80 1014.5
20260905171039 88 0 0.0 2.0 0.00 0.00 0.00 81 1014.5
20260905170539 87 137 0.0 2.0 0.00 0.00 0.00 81 1014.5
20260905170100 87 51 0.0 2.0 0.00 0.00 0.00 82 1014.6
20260905165540 87 0 0.0 2.0 0.00 0.00 0.00 83 1014.5
20260905165040 87 0 0.0 3.0 0.00 0.00 0.00 82 1014.6
20260905164557 87 119 1.0 3.0 0.00 0.00 0.00 82 1014.7
20260905164040 87 0 0.0 3.0 0.00 0.00 0.00 84 1014.7
20260905163538 86 0 0.0 3.0 0.00 0.00 0.00 84 1014.8
20260905163103 86 26 0.0 2.0 0.00 0.00 0.00 83 1014.9
20260905162541 86 9 0.0 2.0 0.00 0.00 0.00 83 1014.8
20260905162039 86 265 0.0 2.0 0.00 0.00 0.00 84 1015.0
20260905161601 85 68 0.0 2.0 0.00 0.00 0.00 84 1014.9
20260905161038 85 0 0.0 2.0 0.00 0.00 0.00 83 1014.8
20260905160539 85 111 0.0 3.0 0.00 0.00 0.00 83 1014.8
20260905155538 84 80 0.0 2.0 0.00 0.00 0.00 84 1014.8
20260905155038 84 221 0.0 2.0 0.00 0.00 0.00 84 1014.7
20260905154557 84 0 0.0 2.0 0.00 0.00 0.00 85 1014.7
20260905154040 83 0 0.0 2.0 0.00 0.00 0.00 85 1014.6
20260905153540 83 0 0.0 2.0 0.00 0.00 0.00 86 1014.5
20260905153059 83 221 0.0 2.0 0.00 0.00 0.00 87 1014.5
20260905152541 83 80 0.0 2.0 0.00 0.00 0.00 87 1014.5
20260905152042 82 0 0.0 2.0 0.00 0.00 0.00 88 1014.6
20260905151556 82 325 0.0 2.0 0.00 0.00 0.00 89 1014.5
20260905151041 82 0 0.0 2.0 0.00 0.00 0.00 89 1014.5
20260905150538 81 0 0.0 3.0 0.00 0.00 0.00 90 1014.4
20260905150058 81 0 0.0 3.0 0.00 0.00 0.00 90 1014.4
20260905145537 81 0 0.0 2.0 0.00 0.00 0.00 92 1014.5
20260905145041 80 0 0.0 2.0 0.00 0.00 0.00 92 1014.3
20260905144604 80 0 0.0 2.0 0.00 0.00 0.00 93 1014.4
20260905144039 80 0 0.0 2.0 0.00 0.00 0.00 93 1014.3
20260905143538 80 0 0.0 2.0 0.00 0.00 0.00 94 1014.2
20260905143059 79 0 0.0 2.0 0.00 0.00 0.00 95 1014.1
20260905142540 79 0 0.0 2.0 0.00 0.00 0.00 95 1014.0
20260905142037 79 0 0.0 2.0 0.00 0.00 0.00 96 1014.0
20260905141601 79 0 0.0 1.0 0.00 0.00 0.00 96 1014.0
20260905141038 79 0 0.0 1.0 0.00 0.00 0.00 96 1014.2
20260905140538 78 0 0.0 2.0 0.00 0.00 0.00 96 1014.2
20260905140105 78 0 0.0 2.0 0.00 0.00 0.00 96 1014.2
20260905135540 78 0 0.0 1.0 0.00 0.00 0.00 96 1014.1
20260905135040 78 0 0.0 1.0 0.00 0.00 0.00 96 1014.1
20260905134558 77 0 0.0 1.0 0.00 0.00 0.00 96 1014.2
20260905134040 77 0 0.0 1.0 0.00 0.00 0.00 96 1014.0
20260905133538 77 0 0.0 1.0 0.00 0.00 0.00 97 1014.1
20260905133130 77 0 0.0 1.0 0.00 0.00 0.00 97 1014.3
20260905132538 77 0 0.0 1.0 0.00 0.00 0.00 97 1014.4
20260905132038 76 0 0.0 1.0 0.00 0.00 0.00 97 1014.3
20260905131608 76 0 0.0 1.0 0.00 0.00 0.00 97 1014.2
20260905131040 76 0 0.0 1.0 0.00 0.00 0.00 97 1014.1
20260905130538 76 0 0.0 1.0 0.00 0.00 0.00 97 1014.1
20260905130058 76 0 0.0 1.0 0.00 0.00 0.00 97 1014.0
20260905125539 76 0 0.0 1.0 0.00 0.00 0.00 97 1013.9
20260905125040 76 0 0.0 1.0 0.00 0.00 0.00 97 1013.8
20260905124555 76 0 0.0 1.0 0.00 0.00 0.00 97 1013.8
20260905124038 75 0 0.0 1.0 0.00 0.00 0.00 97 1013.9
20260905123538 75 0 0.0 1.0 0.00 0.00 0.00 97 1013.9
20260905123055 75 0 0.0 1.0 0.00 0.00 0.00 97 1013.8
20260905122540 75 0 0.0 1.0 0.00 0.00 0.00 97 1013.8
20260905122039 75 0 0.0 1.0 0.00 0.00 0.00 97 1013.8
20260905121559 75 0 0.0 1.0 0.00 0.00 0.00 97 1013.7
20260905121038 75 0 0.0 1.0 0.00 0.00 0.00 96 1013.7
20260905120539 75 0 0.0 1.0 0.00 0.00 0.00 96 1013.6
20260905120100 75 0 0.0 1.0 0.00 0.00 0.00 96 1013.6
20260905115538 75 0 0.0 1.0 0.00 0.00 0.00 96 1013.6
20260905115039 75 0 0.0 1.0 0.00 0.00 0.00 96 1013.5
20260905114608 75 0 0.0 0.0 0.00 0.00 0.00 96 1013.4
20260905114038 75 0 0.0 0.0 0.00 0.00 0.00 96 1013.4
20260905113539 75 0 0.0 0.0 0.00 0.00 0.00 96 1013.5
20260905113058 75 0 0.0 1.0 0.00 0.00 0.00 96 1013.5
20260905112538 75 0 0.0 1.0 0.00 0.00 0.00 96 1013.4
20260905112037 75 0 0.0 1.0 0.00 0.00 0.00 96 1013.4
20260905111608 75 0 0.0 1.0 0.00 0.00 0.00 96 1013.3
20260905111038 76 0 0.0 1.0 0.00 0.00 0.00 96 1013.4
20260905110537 76 0 0.0 1.0 0.00 0.00 0.00 96 1013.3
20260905105538 76 0 0.0 1.0 0.00 0.00 0.00 96 1013.4
20260905105039 76 0 0.0 1.0 0.00 0.00 0.00 96 1013.3
20260905104553 76 0 0.0 1.0 0.00 0.00 0.00 95 1013.3
20260905104038 76 0 0.0 1.0 0.00 0.00 0.00 95 1013.4
20260905103538 76 0 0.0 1.0 0.00 0.00 0.00 95 1013.4
20260905103100 76 0 0.0 1.0 0.00 0.00 0.00 96 1013.4
20260905102545 76 0 0.0 1.0 0.00 0.00 0.00 96 1013.4
20260905102041 76 0 0.0 1.0 0.00 0.00 0.00 96 1013.4
20260905101556 76 0 0.0 1.0 0.00 0.00 0.00 96 1013.4
20260905101037 76 137 0.0 1.0 0.00 0.00 0.00 96 1013.3
20260905100538 76 0 0.0 1.0 0.00 0.00 0.00 95 1013.4
20260905100059 76 0 0.0 1.0 0.00 0.00 0.00 95 1013.4
20260905095538 76 0 0.0 0.0 0.00 0.00 0.00 95 1013.5
20260905095038 76 0 0.0 0.0 0.00 0.00 0.00 95 1013.4
20260905094605 76 0 0.0 1.0 0.00 0.00 0.00 95 1013.5
20260905094037 76 0 0.0 1.0 0.00 0.00 0.00 95 1013.4
20260905093538 76 0 0.0 1.0 0.00 0.00 0.00 95 1013.4
20260905093102 76 0 0.0 1.0 0.00 0.00 0.00 95 1013.4
20260905092539 76 0 0.0 1.0 0.00 0.00 0.00 95 1013.4
20260905092040 77 0 0.0 1.0 0.00 0.00 0.00 95 1013.5
20260905091606 77 0 0.0 1.0 0.00 0.00 0.00 95 1013.5
20260905091039 77 0 0.0 1.0 0.00 0.00 0.00 95 1013.5
20260905090538 77 0 0.0 0.0 0.00 0.00 0.00 95 1013.4
20260905085538 77 0 0.0 1.0 0.00 0.00 0.00 95 1013.5
20260905085038 77 0 0.0 1.0 0.00 0.00 0.00 95 1013.6
20260905084556 77 0 0.0 1.0 0.00 0.00 0.00 95 1013.5
20260905084038 77 0 0.0 0.0 0.00 0.00 0.00 95 1013.6
20260905083541 77 0 0.0 1.0 0.00 0.00 0.00 95 1013.5
20260905083053 77 0 0.0 1.0 0.00 0.00 0.00 95 1013.6
20260905082538 77 0 0.0 1.0 0.00 0.00 0.00 95 1013.6
20260905082042 77 0 0.0 1.0 0.00 0.00 0.00 95 1013.6
20260905081603 77 0 0.0 1.0 0.00 0.00 0.00 95 1013.5
20260905081040 77 0 0.0 1.0 0.00 0.00 0.00 95 1013.6
20260905080540 77 0 0.0 1.0 0.00 0.00 0.00 95 1013.6
20260905080105 77 0 0.0 1.0 0.00 0.00 0.00 95 1013.7
20260905075540 77 0 0.0 1.0 0.00 0.00 0.00 95 1013.7
20260905075043 77 0 0.0 1.0 0.00 0.00 0.00 94 1013.7
20260905074559 78 0 0.0 1.0 0.00 0.00 0.00 94 1013.7
20260905074040 78 0 0.0 1.0 0.00 0.00 0.00 94 1013.6
20260905073537 78 0 0.0 0.0 0.00 0.00 0.00 94 1013.6
20260905073101 78 0 0.0 0.0 0.00 0.00 0.00 94 1013.7
20260905072542 78 0 0.0 0.0 0.00 0.00 0.00 94 1013.8
20260905072043 78 0 0.0 0.0 0.00 0.00 0.00 94 1013.8
20260905071602 78 0 0.0 0.0 0.00 0.00 0.00 94 1013.7
20260905071044 78 0 0.0 0.0 0.00 0.00 0.00 94 1013.8
20260905070540 78 0 0.0 0.0 0.00 0.00 0.00 94 1013.9
20260905070057 78 0 0.0 1.0 0.00 0.00 0.00 94 1013.8
20260905065540 78 0 0.0 1.0 0.00 0.00 0.00 94 1013.8
20260905065040 79 0 0.0 0.0 0.00 0.00 0.00 94 1013.9
20260905064603 79 0 0.0 1.0 0.00 0.00 0.00 94 1013.8
20260905064042 79 0 0.0 1.0 0.00 0.00 0.00 94 1013.8
20260905063539 79 0 0.0 0.0 0.00 0.00 0.00 94 1013.8
20260905063109 79 0 0.0 0.0 0.00 0.00 0.00 94 1013.9
20260905062540 79 0 0.0 1.0 0.00 0.00 0.00 94 1014.0
20260905062037 79 0 0.0 1.0 0.00 0.00 0.00 94 1013.9
20260905061611 79 0 0.0 1.0 0.00 0.00 0.00 93 1014.1
20260905061043 79 0 0.0 0.0 0.00 0.00 0.00 94 1014.2
20260905060540 79 0 0.0 1.0 0.00 0.00 0.00 94 1014.3
20260905060100 79 0 0.0 1.0 0.00 0.00 0.00 93 1014.2
20260905055539 79 0 0.0 0.0 0.00 0.00 0.00 94 1014.2
20260905055040 79 0 0.0 0.0 0.00 0.00 0.00 93 1014.2
20260905054600 79 0 0.0 0.0 0.00 0.00 0.00 93 1014.2
20260905054040 80 0 0.0 0.0 0.00 0.00 0.00 93 1014.2
20260905053541 80 0 0.0 0.0 0.00 0.00 0.00 93 1014.1
20260905053100 80 0 0.0 0.0 0.00 0.00 0.00 93 1014.2
20260905052539 80 0 0.0 0.0 0.00 0.00 0.00 93 1014.1
20260905052043 80 0 0.0 1.0 0.00 0.00 0.00 93 1014.0
20260905051554 80 0 0.0 1.0 0.00 0.00 0.00 93 1014.1
20260905051039 80 0 0.0 1.0 0.00 0.00 0.00 93 1013.9
20260905050538 80 0 0.0 0.0 0.00 0.00 0.00 93 1014.0
20260905050059 80 0 0.0 0.0 0.00 0.00 0.00 93 1014.0
20260905045540 80 0 0.0 0.0 0.00 0.00 0.00 92 1013.9
20260905045038 80 0 0.0 0.0 0.00 0.00 0.00 92 1013.9
20260905044603 80 0 0.0 1.0 0.00 0.00 0.00 92 1013.9
20260905044040 80 0 0.0 1.0 0.00 0.00 0.00 92 1014.0
20260905043537 80 0 0.0 1.0 0.00 0.00 0.00 92 1014.0
20260905043121 80 0 0.0 1.0 0.00 0.00 0.00 92 1014.0
20260905042537 81 0 0.0 1.0 0.00 0.00 0.00 92 1013.9
20260905042039 81 0 0.0 1.0 0.00 0.00 0.00 91 1014.0
20260905041557 81 0 0.0 1.0 0.00 0.00 0.00 91 1014.0
20260905041038 81 51 0.0 1.0 0.00 0.00 0.00 92 1013.9
20260905040538 81 0 0.0 0.0 0.00 0.00 0.00 91 1013.9
20260905040119 81 0 0.0 0.0 0.00 0.00 0.00 91 1013.8
20260905035538 81 0 0.0 0.0 0.00 0.00 0.00 91 1013.9
20260905035038 81 0 0.0 0.0 0.00 0.00 0.00 91 1013.9
20260905034559 81 0 0.0 0.0 0.00 0.00 0.00 91 1013.9
20260905034041 81 0 0.0 0.0 0.00 0.00 0.00 91 1013.9
20260905033539 81 0 0.0 0.0 0.00 0.00 0.00 91 1013.9
20260905033100 81 0 0.0 0.0 0.00 0.00 0.00 91 1014.0
20260905032540 81 0 0.0 0.0 0.00 0.00 0.00 90 1013.9
20260905032039 81 0 0.0 0.0 0.00 0.00 0.00 90 1013.9
20260905031554 82 0 0.0 0.0 0.00 0.00 0.00 90 1014.0